Date,TemperatureHighF,TemperatureAvgF,TemperatureLowF,DewpointHighF,DewpointAvgF,DewpointLowF,HumidityHigh,HumidityAvg,HumidityLow,PressureMaxIn,PressureMinIn,WindSpeedMaxMPH,WindSpeedAvgMPH,GustSpeedMaxMPH,PrecipitationSumIn
2014-1-1,39,31,26,30,25,21,92,80,68,30.39,30.09,2,0,7,0.02
2014-1-2,31,28,13,28,25,9,93,89,84,30.09,29.71,8,1,12,0.00
2014-1-3,17,11,2,14,6,0,100,79,68,30.51,29.89,10,3,20,0.00
2014-1-4,39,15,2,20,8,-1,92,76,36,30.46,30.19,5,0,11,0.15
2014-1-5,50,35,13,44,30,11,95,83,63,30.22,29.44,2,0,8,0.03
2014-1-6,49,20,-4,47,15,-11,97,83,69,30.22,29.39,6,2,16,0.20
2014-1-7,6,-1,-7,-2,-7,-15,84,72,66,30.53,30.22,6,3,12,0.00
2014-1-8,25,15,-3,21,9,-6,89,78,63,30.61,30.50,2,0,6,0.00
2014-1-9,36,29,20,31,24,18,93,82,70,30.66,30.43,2,0,7,0.06
2014-1-10,48,38,33,45,37,30,96,93,87,30.43,29.92,1,0,6,0.01
2014-1-11,54,48,39,52,45,35,98,90,76,29.92,29.39,8,2,20,0.49
2014-1-12,39,35,26,35,31,25,94,86,79,30.09,29.69,4,1,17,0.00
2014-1-13,58,43,26,46,36,25,95,79,43,30.06,29.76,5,1,13,0.20
2014-1-14,47,40,28,46,38,26,97,92,78,29.87,29.72,3,0,10,0.11
2014-1-15,37,33,25,36,27,19,96,80,65,30.07,29.82,3,1,14,0.00
2014-1-16,34,28,21,23,20,17,88,73,59,30.05,29.87,4,0,12,0.00
2014-1-17,40,33,25,35,30,22,94,87,65,29.98,29.82,7,0,17,0.02
2014-1-18,25,17,11,23,13,8,92,86,80,30.08,29.94,1,0,8,0.00
2014-1-19,32,26,18,26,22,15,93,85,76,29.94,29.76,4,1,12,0.00
2014-1-20,38,34,27,32,28,21,89,80,73,29.96,29.69,5,1,13,0.08
2014-1-21,26,18,5,22,13,-1,89,81,66,30.12,29.88,8,4,14,0.00
2014-1-22,13,4,-9,4,-1,-13,90,77,64,30.20,30.10,4,0,9,0.00
2014-1-23,16,11,6,10,6,3,91,81,66,30.55,30.12,5,1,12,0.00
2014-1-24,19,10,2,5,2,-2,85,72,54,30.59,29.94,6,2,12,0.00
2014-1-25,27,22,15,24,16,4,91,80,46,29.94,29.44,9,3,14,0.00
2014-1-26,31,17,8,22,12,3,90,80,70,29.92,29.64,4,1,9,0.00
2014-1-27,44,22,4,35,13,-4,92,68,53,30.35,29.56,11,3,21,0.08
2014-1-28,9,2,-10,-1,-6,-14,87,70,55,30.54,30.35,9,1,11,0.00
2014-1-29,18,3,-12,4,-5,-16,88,71,51,30.46,30.33,4,1,10,0.00
2014-1-30,32,16,-5,15,4,-8,89,62,32,30.45,30.05,5,0,12,0.05
2014-1-31,40,35,30,29,24,12,86,64,41,30.22,30.07,3,0,11,0.11
2014-2-1,53,40,30,40,33,26,88,76,58,30.20,29.91,3,0,6,0.04
2014-2-2,40,36,30,39,34,28,100,92,82,30.21,29.92,4,1,9,0.29
2014-2-3,31,25,9,28,22,6,93,89,79,30.42,30.12,3,1,8,0.05
2014-2-4,33,21,6,27,18,3,94,86,76,30.49,30.10,3,1,9,0.08
2014-2-5,38,31,24,37,28,19,100,90,80,30.29,29.64,7,2,17,0.01
2014-2-6,27,22,15,20,16,11,92,80,63,30.46,30.29,4,1,9,0.02
2014-2-7,26,19,7,19,12,3,88,74,56,30.45,30.35,4,1,10,0.01
2014-2-8,25,14,3,16,7,0,91,75,51,30.43,30.25,1,0,4,0.00
2014-2-9,32,24,19,29,21,13,93,86,76,30.26,29.99,4,0,12,0.00
2014-2-10,22,15,3,15,10,0,92,79,67,30.43,30.21,2,0,5,0.00
2014-2-11,24,9,-6,14,3,-9,90,79,60,30.56,30.42,4,0,8,0.01
2014-2-12,31,15,-3,15,6,-7,91,70,48,30.55,30.17,5,1,10,0.01
2014-2-13,31,27,20,28,24,15,92,87,68,30.17,29.62,3,1,7,0.00
2014-2-14,37,30,18,28,24,16,94,79,67,29.77,29.57,5,1,13,0.01
2014-2-15,29,24,12,26,19,7,92,79,61,30.12,29.70,6,2,0,0.00
2014-2-16,28,20,7,25,16,3,89,84,76,30.38,30.04,7,1,11,0.00
2014-2-17,34,18,-4,28,10,-7,91,72,42,30.50,29.89,8,2,25,0.01
2014-2-18,46,36,26,35,31,23,93,83,60,30.10,29.90,5,1,13,0.43
2014-2-19,50,38,24,45,34,21,96,85,62,30.18,29.74,7,1,13,0.33
2014-2-20,50,36,20,43,32,18,96,86,59,30.19,29.74,2,0,7,0.08
2014-2-21,50,43,36,49,36,22,97,77,54,30.01,29.61,7,1,14,0.28
2014-2-22,54,40,25,31,26,22,88,61,36,30.07,29.98,6,1,12,0.00
2014-2-23,46,36,29,36,31,22,94,84,64,30.08,29.99,6,0,13,0.02
2014-2-24,33,28,20,22,16,11,76,61,45,30.20,30.06,7,2,14,0.01
2014-2-25,28,24,18,21,18,13,86,75,65,30.17,30.03,4,1,12,0.00
2014-2-26,25,19,10,20,12,6,86,73,51,30.12,29.85,8,2,13,0.01
2014-2-27,26,17,5,18,8,-1,86,67,53,30.25,29.73,11,4,22,0.00
2014-2-28,27,11,-1,11,2,-4,90,69,34,30.45,30.25,3,0,7,0.00
2014-3-1,48,31,14,32,21,10,92,69,40,30.26,30.13,4,0,7,0.00
2014-3-2,39,28,17,34,23,6,91,82,63,30.22,30.11,7,2,13,0.00
2014-3-3,22,13,2,7,3,-2,84,62,48,30.47,30.22,8,3,14,0.01
2014-3-4,35,19,1,22,8,-3,87,66,34,30.48,30.24,3,0,8,0.09
2014-3-5,34,25,13,20,15,10,92,67,39,30.47,30.24,6,1,12,0.01
2014-3-6,38,28,19,22,16,10,70,61,52,30.50,30.26,7,3,13,0.00
2014-3-7,52,36,22,37,28,18,92,73,54,30.26,29.98,3,0,8,0.00
2014-3-8,53,37,24,39,32,22,96,82,58,30.09,29.97,5,1,11,0.03
2014-3-9,41,31,22,30,24,17,92,74,53,30.26,30.02,6,2,11,0.02
2014-3-10,60,44,29,40,34,24,87,69,47,30.02,29.67,5,1,10,0.00
2014-3-11,68,52,34,48,41,31,93,70,46,29.74,29.61,4,1,10,0.00
2014-3-12,53,39,21,52,36,17,97,87,75,29.78,29.09,13,3,22,0.91
2014-3-13,28,20,11,18,11,3,83,69,51,30.22,29.78,12,4,19,0.00
2014-3-14,61,44,25,38,27,16,69,52,39,30.20,29.79,7,3,15,0.01
2014-3-15,54,46,35,43,35,28,89,68,46,30.16,29.75,7,3,16,0.06
2014-3-16,34,29,25,27,17,10,81,61,43,30.28,30.10,6,2,13,0.00
2014-3-17,38,32,26,26,22,14,74,66,52,30.08,29.95,6,2,15,0.00
2014-3-18,51,38,24,36,29,21,92,72,57,30.13,30.00,8,2,14,0.00
2014-3-19,59,46,30,49,40,26,95,82,60,30.07,29.77,4,0,10,0.22
2014-3-20,47,40,32,45,34,28,91,78,65,30.06,29.83,5,2,11,0.02
2014-3-21,46,34,22,38,30,20,95,87,72,30.17,29.92,2,0,6,0.06
2014-3-22,54,46,32,41,35,27,93,68,50,30.14,29.77,9,3,17,0.00
2014-3-23,36,31,21,30,21,11,87,69,46,30.36,30.11,8,4,16,0.00
2014-3-24,34,24,12,17,13,8,89,63,44,30.38,30.16,7,1,15,0.00
2014-3-25,40,29,20,25,19,16,88,68,45,30.17,29.91,7,1,22,0.00
2014-3-26,30,24,17,23,14,9,89,67,49,30.38,30.06,11,4,17,0.01
2014-3-27,54,36,14,29,19,11,90,57,23,30.40,29.95,5,1,10,0.00
2014-3-28,62,55,42,54,43,28,84,65,38,30.14,29.86,8,2,16,0.05
2014-3-29,64,45,33,54,41,32,100,89,68,30.16,29.71,8,2,14,0.72
2014-3-30,48,38,33,38,32,27,94,79,58,30.14,29.78,12,6,18,0.11
2014-3-31,62,42,24,34,28,22,94,62,27,30.27,30.13,4,0,10,0.00
2014-4-1,77,53,31,48,35,28,90,58,25,30.15,29.85,7,1,13,0.00
2014-4-2,62,52,44,50,44,30,95,75,30,30.15,29.99,7,1,13,0.53
2014-4-3,64,53,46,55,45,36,95,76,54,30.12,29.80,5,1,12,0.30
2014-4-4,64,56,47,62,53,40,98,91,76,29.81,29.54,7,2,15,0.52
2014-4-5,47,40,29,40,32,26,89,73,60,30.24,29.81,7,2,18,0.00
2014-4-6,60,42,22,35,28,21,96,63,29,30.28,30.06,5,1,9,0.00
2014-4-7,54,48,39,48,41,32,92,78,54,30.06,29.42,8,2,19,0.06
2014-4-8,60,51,37,52,42,33,95,73,43,29.76,29.40,10,3,17,0.10
2014-4-9,59,46,33,40,34,28,92,66,39,30.09,29.75,9,2,18,0.00
2014-4-10,71,52,29,42,35,27,95,59,29,30.13,29.86,8,2,15,0.00
2014-4-11,64,56,44,55,50,38,96,84,42,30.11,29.91,5,0,14,0.28
2014-4-12,74,56,41,52,43,36,98,70,27,30.25,29.97,5,1,9,0.00
2014-4-13,83,66,49,60,53,46,91,65,37,30.02,29.83,6,1,17,0.00
2014-4-14,76,68,58,62,57,53,92,68,51,29.83,29.61,6,2,12,0.11
2014-4-15,66,42,30,58,38,21,93,85,69,30.20,29.47,9,3,20,0.26
2014-4-16,45,35,26,26,22,16,83,60,39,30.54,30.20,4,1,11,0.01
2014-4-17,62,49,36,36,29,21,62,46,34,30.53,30.38,7,2,13,0.00
2014-4-18,70,51,33,43,37,30,91,61,32,30.41,30.20,3,0,7,0.00
2014-4-19,64,52,40,43,37,27,93,61,25,30.37,30.23,7,1,13,0.00
2014-4-20,72,55,34,39,34,30,89,52,23,30.37,30.18,5,1,11,0.00
2014-4-21,79,59,36,47,40,32,92,56,23,30.18,29.81,4,0,9,0.00
2014-4-22,71,56,48,60,50,39,95,79,61,29.81,29.58,11,2,19,0.05
2014-4-23,49,44,34,40,36,24,85,73,55,30.13,29.81,9,3,16,0.00
2014-4-24,61,44,24,34,27,21,91,55,27,30.23,29.96,4,1,9,0.00
2014-4-25,68,53,39,56,44,33,94,76,37,29.97,29.66,7,1,19,0.30
2014-4-26,71,53,38,53,43,36,97,71,42,30.03,29.78,12,3,24,0.01
2014-4-27,64,48,31,41,36,29,96,68,37,30.15,30.03,4,1,10,0.00
2014-4-28,61,52,46,51,44,37,95,74,53,30.07,29.86,7,2,13,0.46
2014-4-29,56,53,51,50,48,46,93,86,77,30.03,29.81,11,5,22,0.18
2014-4-30,64,56,50,58,52,46,97,87,76,30.01,29.75,5,2,15,0.80
2014-5-1,61,56,48,57,50,41,97,81,54,29.86,29.80,4,0,11,0.02
2014-5-2,56,52,47,46,43,40,88,73,62,29.90,29.80,3,0,12,0.00
2014-5-3,63,50,40,54,46,38,96,85,55,29.88,29.76,6,0,15,0.24
2014-5-4,64,54,46,50,45,34,95,74,43,30.07,29.82,9,2,19,0.00
2014-5-5,60,48,31,45,38,29,95,70,42,30.12,29.93,3,0,7,0.00
2014-5-6,71,56,38,46,42,36,95,65,38,30.05,29.92,5,1,9,0.00
2014-5-7,75,56,40,62,50,38,98,82,61,30.19,29.99,6,1,11,0.20
2014-5-8,85,68,49,67,58,47,97,73,46,30.09,29.98,5,1,10,0.00
2014-5-9,84,70,52,67,60,51,97,72,47,30.05,29.83,4,0,9,0.01
2014-5-10,69,64,58,64,61,57,97,90,79,30.00,29.88,2,0,8,0.49
2014-5-11,75,62,51,62,57,50,98,84,59,30.17,30.00,2,0,6,0.01
2014-5-12,79,66,55,70,63,54,97,91,70,30.12,30.05,2,0,8,0.19
2014-5-13,89,75,59,74,67,58,99,79,51,30.15,29.98,9,0,16,0.65
2014-5-14,81,72,62,70,66,61,97,81,61,30.10,29.93,7,1,14,0.04
2014-5-15,71,65,52,66,61,51,96,88,74,29.99,29.84,4,1,12,1.02
2014-5-16,59,52,45,51,47,43,97,84,59,30.02,29.90,3,0,8,0.24
2014-5-17,56,49,44,49,45,42,96,89,71,30.24,30.01,5,0,9,0.23
2014-5-18,63,50,39,47,42,37,97,76,42,30.32,30.24,3,0,8,0.00
2014-5-19,70,53,34,53,42,33,97,71,37,30.36,30.20,3,0,8,0.00
2014-5-20,76,59,43,62,51,41,100,78,43,30.24,29.98,4,0,9,0.01
2014-5-21,76,65,54,67,61,53,98,88,69,29.98,29.84,3,0,7,0.01
2014-5-22,78,67,51,69,60,49,98,81,50,30.00,29.83,7,1,16,0.00
2014-5-23,66,56,45,55,49,44,98,80,55,30.15,29.96,8,2,15,0.00
2014-5-24,74,60,46,59,52,44,96,76,48,30.20,30.09,4,0,11,0.00
2014-5-25,80,60,43,61,51,42,97,77,41,30.21,30.09,2,0,9,0.00
2014-5-26,83,66,48,66,57,46,97,74,45,30.16,29.98,8,0,8,0.00
2014-5-27,85,68,59,74,65,57,98,90,67,30.01,29.86,5,0,9,1.03
2014-5-28,81,69,62,73,66,62,99,92,70,30.01,29.89,3,0,9,0.32
2014-5-29,75,67,62,69,65,61,99,93,78,30.06,29.99,1,0,4,0.02
2014-5-30,78,65,57,64,58,55,96,81,48,30.17,30.06,3,1,9,0.00
2014-5-31,79,65,50,61,55,49,98,75,44,30.23,30.15,3,0,9,0.00
2014-6-1,84,68,47,68,58,46,97,72,50,30.25,30.09,3,0,8,0.00
2014-6-2,81,70,58,73,65,57,98,84,72,30.15,29.99,1,0,3,0.00
2014-6-3,83,72,64,74,68,63,98,89,66,30.00,29.83,5,0,11,0.45
2014-6-4,76,66,56,68,62,55,98,88,65,29.93,29.67,2,0,7,0.28
2014-6-5,72,63,50,60,56,48,96,80,60,29.94,29.67,7,2,13,0.11
2014-6-6,76,60,44,61,52,43,98,77,50,30.03,29.92,4,0,9,0.00
2014-6-7,82,65,48,65,56,47,98,77,45,30.09,29.92,2,0,8,0.00
2014-6-8,79,67,55,73,64,54,100,90,68,29.92,29.73,3,0,9,0.18
2014-6-9,70,64,60,66,62,59,97,92,81,29.95,29.87,1,0,4,0.00
2014-6-10,76,66,57,69,63,56,99,89,70,29.96,29.90,0,0,3,0.00
2014-6-11,84,70,62,74,66,61,98,89,64,29.93,29.77,3,0,10,0.98
2014-6-12,80,71,66,73,68,65,98,92,77,29.86,29.76,2,0,7,0.41
2014-6-13,80,67,59,72,65,58,99,94,74,29.94,29.75,6,0,8,0.79
2014-6-14,72,61,51,61,55,50,98,84,58,30.13,29.94,4,0,13,0.01
2014-6-15,83,65,48,66,56,47,98,77,45,30.18,30.05,2,0,5,0.00
2014-6-16,86,70,55,76,66,54,99,87,67,30.14,30.03,1,0,4,0.04
2014-6-17,87,75,62,78,70,61,99,85,66,30.11,29.92,1,0,8,0.00
2014-6-18,84,75,67,78,71,65,98,87,66,30.06,29.94,9,0,17,0.67
2014-6-19,75,70,64,72,68,62,99,94,84,30.07,29.96,3,0,8,0.12
2014-6-20,82,69,61,72,66,60,99,90,62,30.07,29.90,1,0,4,0.02
2014-6-21,73,68,63,68,65,62,97,93,81,29.92,29.84,2,0,6,0.35
2014-6-22,82,68,58,70,64,57,100,89,62,29.97,29.90,1,0,4,0.01
2014-6-23,85,73,58,75,67,57,99,84,65,30.01,29.93,2,0,8,0.00
2014-6-24,86,74,65,78,70,63,98,88,72,30.01,29.88,3,0,8,0.22
2014-6-25,78,72,66,75,70,65,99,95,87,29.94,29.84,1,0,6,0.06
2014-6-26,82,70,61,72,66,60,99,87,62,30.03,29.92,4,0,9,0.00
2014-6-27,86,72,59,73,66,58,99,82,52,30.11,30.03,1,0,6,0.00
2014-6-28,88,75,64,76,69,63,99,83,56,30.18,30.09,2,0,8,0.29
2014-6-29,83,74,66,76,71,65,99,91,75,30.16,30.01,1,0,7,0.03
2014-6-30,86,75,67,78,72,66,99,89,70,30.05,29.86,1,0,4,0.00
2014-7-1,88,77,67,80,73,66,99,88,73,29.90,29.77,1,0,5,0.00
2014-7-2,85,77,68,76,72,66,98,87,71,29.91,29.78,1,0,5,0.00
2014-7-3,82,72,64,75,67,60,99,84,60,30.06,29.89,4,0,11,0.00
2014-7-4,74,65,54,61,56,50,95,73,50,30.27,30.06,8,2,15,0.00
2014-7-5,79,63,47,62,54,46,100,75,40,30.32,30.16,2,0,4,0.00
2014-7-6,80,66,52,69,60,51,98,84,54,30.16,29.92,1,0,4,0.01
2014-7-7,85,75,64,74,68,63,96,81,66,29.92,29.75,2,0,11,0.00
2014-7-8,82,73,68,75,70,65,97,89,75,29.82,29.64,2,0,7,0.24
2014-7-9,83,72,62,72,66,62,100,84,58,29.99,29.81,2,0,8,0.01
2014-7-10,82,71,59,71,64,58,98,80,56,30.12,29.99,2,0,6,0.00
2014-7-11,86,72,58,71,64,57,98,79,49,30.19,30.11,2,0,5,0.00
2014-7-12,86,73,61,73,67,60,98,82,58,30.17,30.03,1,0,4,0.00
2014-7-13,84,73,66,77,70,64,98,91,75,30.04,29.84,2,0,6,0.52
2014-7-14,80,72,68,76,71,68,98,95,83,29.92,29.79,1,0,4,0.16
2014-7-15,80,71,57,71,66,56,99,87,62,29.85,29.73,1,0,6,0.01
2014-7-16,74,64,51,62,57,50,98,82,57,30.00,29.84,2,0,8,0.00
2014-7-17,74,63,51,64,57,50,98,82,59,30.17,30.00,3,0,6,0.00
2014-7-18,78,66,50,67,59,49,98,82,55,30.24,30.16,2,0,8,0.20
2014-7-19,68,65,64,66,64,63,97,96,92,30.20,30.09,3,0,9,0.81
2014-7-20,82,71,63,74,67,62,98,87,66,30.10,30.02,1,0,6,0.00
2014-7-21,86,74,65,78,70,64,98,87,69,30.13,30.05,1,0,3,0.00
2014-7-22,88,76,64,79,71,64,99,86,66,30.13,29.99,1,0,4,0.00
2014-7-23,85,75,67,78,71,63,99,87,67,30.00,29.85,6,1,14,0.00
2014-7-24,77,68,60,64,60,55,92,77,56,30.04,29.93,5,1,12,0.00
2014-7-25,79,65,49,64,57,48,97,78,46,30.11,29.98,1,0,6,0.00
2014-7-26,83,71,61,72,65,59,97,84,60,30.01,29.84,2,0,4,0.23
2014-7-27,82,71,67,75,70,66,99,94,80,29.89,29.60,1,0,4,0.86
2014-7-28,70,64,57,68,62,55,98,93,86,29.93,29.57,4,0,12,0.28
2014-7-29,68,59,50,61,55,49,98,88,64,30.04,29.92,2,0,6,0.00
2014-7-30,74,60,48,67,58,47,98,92,73,30.07,30.00,1,0,4,0.15
2014-7-31,79,66,55,70,63,54,99,88,68,30.11,30.04,0,0,5,0.01
2014-8-1,83,69,57,71,64,56,100,84,58,30.15,30.06,3,0,10,0.00
2014-8-2,82,70,62,71,65,61,97,86,60,30.12,30.00,7,0,12,0.49
2014-8-3,77,67,61,71,65,60,98,94,78,30.11,30.04,2,0,6,0.93
2014-8-4,82,68,57,73,64,56,99,88,60,30.15,30.06,1,0,4,0.00
2014-8-5,84,70,57,73,64,57,99,85,62,30.08,29.97,9,0,20,0.01
2014-8-6,78,69,60,72,65,58,98,87,70,30.00,29.92,4,0,6,0.01
2014-8-7,79,66,52,68,59,51,98,82,55,30.09,30.00,2,0,9,0.00
2014-8-8,79,66,54,65,59,53,99,80,54,30.15,30.05,2,0,7,0.00
2014-8-9,82,68,56,71,63,55,98,85,63,30.09,30.02,2,0,10,0.00
2014-8-10,84,71,59,70,65,58,99,82,57,30.09,29.99,3,0,10,0.00
2014-8-11,72,66,62,68,64,61,98,92,80,30.05,29.85,4,1,12,0.49
2014-8-12,82,70,64,76,68,63,99,93,76,29.85,29.69,2,0,7,0.91
2014-8-13,73,65,54,66,62,52,100,91,69,29.97,29.80,2,0,9,0.05
2014-8-14,74,62,50,63,55,48,98,78,50,30.00,29.92,3,1,11,0.00
2014-8-15,72,59,46,61,53,45,98,83,56,30.04,29.98,3,0,8,0.00
2014-8-16,77,61,45,64,55,44,98,82,52,30.04,29.94,1,0,3,0.01
2014-8-17,79,70,63,72,66,61,96,89,69,29.98,29.91,2,0,6,0.03
2014-8-18,83,72,64,74,67,62,97,87,67,29.94,29.77,2,0,7,0.01
2014-8-19,86,73,65,76,69,64,98,87,60,29.86,29.78,1,0,4,0.00
2014-8-20,82,71,65,75,68,64,98,92,75,29.98,29.85,6,0,14,1.12
2014-8-21,78,69,61,74,68,61,99,95,87,30.05,29.96,0,0,2,0.13
2014-8-22,83,74,68,76,71,68,98,92,76,30.02,29.90,3,0,6,0.77
2014-8-23,84,74,66,74,70,64,99,88,63,30.04,29.92,3,0,8,0.00
2014-8-24,80,70,61,70,65,60,98,85,65,30.12,30.03,4,0,9,0.00
2014-8-25,80,68,57,70,62,56,98,83,58,30.18,30.10,3,0,8,0.00
2014-8-26,83,68,54,72,63,53,98,85,61,30.18,30.05,1,0,4,0.01
2014-8-27,85,72,61,78,69,60,99,92,73,30.09,29.94,2,0,6,0.37
2014-8-28,75,65,54,65,59,53,98,81,55,30.15,30.01,5,1,10,0.00
2014-8-29,80,63,48,67,57,47,98,82,49,30.18,30.08,1,0,7,0.00
2014-8-30,87,71,58,78,67,57,99,88,68,30.12,29.99,1,0,6,0.00
2014-8-31,75,71,68,74,70,67,99,97,95,30.05,29.99,1,0,3,1.08
2014-9-1,83,74,69,76,72,68,100,94,76,30.01,29.90,1,0,4,0.02
2014-9-2,83,74,66,77,71,65,99,91,80,29.97,29.82,1,0,5,0.02
2014-9-3,83,70,60,72,66,59,99,88,62,30.10,29.95,1,0,4,0.01
2014-9-4,87,72,59,78,67,58,99,87,63,30.12,30.03,1,0,4,0.00
2014-9-5,87,74,64,78,71,64,99,89,66,30.14,29.98,1,0,6,0.00
2014-9-6,85,72,62,76,68,60,99,90,69,30.08,29.90,9,1,15,0.08
2014-9-7,74,62,49,61,56,48,98,83,57,30.21,30.07,4,0,8,0.00
2014-9-8,78,64,49,65,57,48,98,82,59,30.21,30.12,6,1,17,0.00
2014-9-9,80,69,61,70,63,58,94,83,67,30.16,30.02,3,0,7,0.00
2014-9-10,84,72,60,74,67,59,98,85,67,30.05,29.80,2,0,8,0.00
2014-9-11,75,68,58,70,65,56,97,89,77,30.11,29.75,6,1,12,0.16
2014-9-12,63,58,52,57,54,50,96,85,74,30.21,30.11,3,0,9,0.00
2014-9-13,68,57,46,60,54,44,98,88,66,30.32,30.03,4,0,10,0.11
2014-9-14,66,52,38,56,47,37,98,84,58,30.36,30.22,2,0,6,0.00
2014-9-15,70,55,40,60,50,39,98,85,59,30.27,30.06,1,0,5,0.01
2014-9-16,67,58,49,60,55,48,97,88,65,30.12,30.04,2,0,9,0.07
2014-9-17,70,57,45,60,52,44,98,86,57,30.08,29.96,1,0,6,0.01
2014-9-18,69,56,47,56,50,46,98,82,52,30.16,29.99,4,0,12,0.00
2014-9-19,74,59,44,62,54,43,98,82,61,30.24,30.14,3,0,9,0.00
2014-9-20,79,66,53,69,61,52,98,86,68,30.17,29.94,1,0,5,0.00
2014-9-21,77,66,58,71,62,53,98,87,55,29.96,29.63,3,0,11,0.18
2014-9-22,60,56,45,55,50,43,92,79,64,30.29,29.85,4,1,12,0.01
2014-9-23,68,52,36,55,46,35,97,81,51,30.40,30.29,2,0,6,0.00
2014-9-24,75,59,43,58,50,42,98,75,45,30.46,30.38,5,1,11,0.01
2014-9-25,74,62,53,65,57,52,98,85,63,30.39,30.23,3,0,7,0.00
2014-9-26,76,62,49,63,55,48,98,81,49,30.30,30.20,2,0,9,0.00
2014-9-27,78,61,45,65,54,44,98,82,51,30.29,30.17,3,0,8,0.00
2014-9-28,75,61,47,67,57,46,98,87,65,30.20,30.05,0,0,1,0.00
2014-9-29,78,64,52,67,60,51,99,86,62,30.06,29.89,2,0,6,0.00
2014-9-30,76,61,50,66,57,50,99,88,61,29.95,29.87,7,0,11,0.01
2014-10-1,70,58,50,63,56,49,98,92,75,30.06,29.94,1,0,5,0.01
2014-10-2,75,60,48,63,55,47,100,85,57,30.13,29.99,2,0,7,0.01
2014-10-3,77,63,53,66,60,52,98,90,67,29.99,29.63,5,0,14,0.18
2014-10-4,60,49,42,59,45,37,97,88,64,29.84,29.64,2,0,10,0.21
2014-10-5,54,45,35,44,39,34,97,81,60,29.93,29.82,1,0,6,0.00
2014-10-6,70,55,42,58,50,40,95,85,60,29.92,29.78,3,0,8,0.10
2014-10-7,69,58,48,58,54,47,97,89,62,29.94,29.74,3,0,8,0.47
2014-10-8,66,55,43,57,50,42,98,85,58,30.06,29.82,3,0,12,0.00
2014-10-9,63,49,35,51,43,34,98,83,58,30.14,30.05,2,0,9,0.01
2014-10-10,60,51,40,53,48,38,97,90,73,30.13,30.06,2,0,5,0.02
2014-10-11,61,52,43,50,45,40,96,79,54,30.23,30.01,5,1,11,0.05
2014-10-12,66,51,35,54,45,33,97,82,63,30.23,30.14,4,1,11,0.00
2014-10-13,74,62,53,67,59,50,98,90,77,30.15,30.03,1,0,5,0.03
2014-10-14,83,71,57,70,63,56,96,79,55,30.04,29.71,7,2,15,0.03
2014-10-15,73,59,52,66,57,50,98,92,74,29.86,29.73,3,0,8,0.84
2014-10-16,64,56,51,57,54,49,98,92,74,29.77,29.72,0,0,0,0.00
2014-10-17,76,60,53,58,55,52,96,83,52,29.78,29.61,0,0,0,0.00
2014-10-18,63,53,46,54,47,43,92,81,68,29.99,29.63,0,0,0,0.00
2014-10-19,61,46,36,44,39,34,92,78,48,30.18,29.98,0,0,0,0.00
2014-10-20,59,47,36,48,42,34,96,84,62,30.10,29.89,0,0,0,0.00
2014-10-21,56,51,49,53,49,47,96,92,77,30.03,29.85,0,0,0,0.00
2014-10-22,51,49,48,48,46,43,96,88,82,30.19,30.01,0,0,0,0.00
2014-10-23,64,53,46,50,46,42,90,77,58,30.16,30.03,0,0,1,0.00
2014-10-24,66,46,35,49,41,34,97,83,47,30.14,30.00,0,0,0,0.00
2014-10-25,69,54,39,57,49,37,96,82,62,30.04,29.75,0,0,1,0.00
2014-10-26,66,51,36,47,38,32,93,64,35,29.99,29.77,0,0,1,0.00
2014-10-27,80,51,30,51,40,28,97,71,30,30.09,29.92,0,0,0,0.00
2014-10-28,81,64,51,63,56,48,95,76,48,29.97,29.83,5,1,10,0.05
2014-10-29,61,54,42,51,45,36,95,74,52,30.05,29.93,8,1,12,0.01